Change the Weather History Date:

Thursday, November 8, 2012

  Actual Average Record
Temperature  
Mean Temperature 40 °F 34 °F  
Max Temperature 48 °F 42 °F 69 °F (1999)
Min Temperature 31 °F 27 °F 0 °F (2003)
Degree Days  
Heating Degree Days 25 31  
Month to date heating degree days 272 232  
Since 1 July heating degree days 1393 1325  
Cooling Degree Days 0 0  
Month to date cooling degree days 0 0  
Year to date cooling degree days 373 261  
Moisture  
Dew Point 32 °F    
Average Humidity 78    
Maximum Humidity 96    
Minimum Humidity 60    
Precipitation  
Precipitation T in 0.06 in 1.16 in (1916)
Month to date precipitation 0.09 0.52  
Year to date precipitation 27.92 28.64  
Snow  
Snow 0.00 in - 3.00 in (1938)
Month to date snowfall 0.9  
Since 1 July snowfall 0.9  
Since 1 September snowfall 0.9  
Snow Depth 0.00 in    
Sea Level Pressure  
Sea Level Pressure 30.07 in    
Wind  
Wind Speed 5 mph (SSW)    
Max Wind Speed 17 mph    
Max Gust Speed 23 mph    
Visibility 10 miles    
Events      
T = Trace of Precipitation, MM = Missing Value Source: NWS Daily Summary

Daily Weather History Graph

Daily Weather History Graph

Search for Another Location

Airport or City:

Trip Planner

Search our weather history database for the weather conditions in past years. The results will help you decide how hot, cold, wet, or windy it might be!

Date:

Astronomy

Nov. 08, 2012 Rise Set
Actual Time 6:48 AM CST 4:34 PM CST
Civil Twilight 6:16 AM CST 5:06 PM CST
Nautical Twilight 5:41 AM CST 5:41 PM CST
Astronomical Twilight 5:06 AM CST 6:16 PM CST
Moon 12:26 AM CST (11/8) 1:31 PM CST (11/8)
Length of Visible Light 10h 49m
Length of Day
9h 46m
Waning Crescent, 32% of the Moon is Illuminated
Nov 8
Waning Crescent
Nov 13
New
Nov 20
First Quarter
Nov 28
Full
Dec 6
Last Quarter

Hourly Weather History & Observations

Time (CST) Temp. Windchill Dew Point Humidity Pressure Visibility Wind Dir Wind Speed Gust Speed Precip Events Conditions
12:53 AM 34.0 °F 31.0 °F 30.0 °F 85% 30.13 in 10.0 mi SSW 3.5 mph - N/A   Overcast
1:32 AM 35.6 °F 31.7 °F 30.2 °F 81% 30.09 in 10.0 mi SW 4.6 mph - N/A   Overcast
1:53 AM 34.0 °F - 30.9 °F 89% 30.14 in 10.0 mi Calm Calm - N/A   Overcast
2:53 AM 34.0 °F 31.0 °F 30.9 °F 89% 30.13 in 10.0 mi SSW 3.5 mph - N/A   Overcast
3:53 AM 34.0 °F 31.0 °F 30.9 °F 89% 30.12 in 10.0 mi SSW 3.5 mph - N/A   Overcast
4:53 AM 34.0 °F 28.0 °F 30.9 °F 89% 30.12 in 10.0 mi SSW 6.9 mph - N/A   Overcast
5:53 AM 34.0 °F 28.0 °F 30.9 °F 89% 30.12 in 9.0 mi SSW 6.9 mph - 0.00 in   Overcast
6:53 AM 34.0 °F 29.8 °F 30.0 °F 85% 30.11 in 9.0 mi South 4.6 mph - N/A   Overcast
7:53 AM 35.1 °F 27.9 °F 30.0 °F 82% 30.11 in 10.0 mi South 9.2 mph - N/A   Overcast
8:08 AM 35.6 °F 29.9 °F 30.2 °F 81% 30.05 in 10.0 mi South 6.9 mph - N/A   Overcast
8:53 AM 36.0 °F 30.3 °F 30.9 °F 82% 30.09 in 10.0 mi South 6.9 mph - N/A   Clear
9:53 AM 39.0 °F 32.3 °F 30.9 °F 73% 30.08 in 10.0 mi South 10.4 mph 23.0 mph N/A   Clear
10:41 AM 39.2 °F 31.6 °F 32.0 °F 75% 30.04 in 10.0 mi SW 12.7 mph 18.4 mph N/A   Mostly Cloudy
11:12 AM 41.0 °F 33.9 °F 32.0 °F 70% 30.02 in 10.0 mi South 12.7 mph 19.6 mph N/A   Overcast
11:53 AM 42.1 °F 36.1 °F 32.0 °F 67% 30.04 in 10.0 mi South 10.4 mph 19.6 mph N/A   Mostly Cloudy
12:53 PM 46.0 °F 40.6 °F 34.0 °F 63% 30.01 in 10.0 mi SSW 11.5 mph - N/A   Partly Cloudy
1:53 PM 46.9 °F - 33.1 °F 59% 29.99 in 10.0 mi South 12.7 mph 23.0 mph N/A   Clear
2:53 PM 46.9 °F - 33.1 °F 59% 29.98 in 10.0 mi South 12.7 mph - N/A   Clear
3:53 PM 45.0 °F 41.2 °F 33.1 °F 63% 29.99 in 10.0 mi SSW 6.9 mph - N/A   Clear
4:53 PM 42.1 °F 40.2 °F 33.1 °F 70% 30.02 in 10.0 mi SSW 3.5 mph - N/A   Clear
5:53 PM 37.9 °F 35.5 °F 32.0 °F 79% 30.05 in 10.0 mi SSW 3.5 mph - N/A   Clear
6:53 PM 37.9 °F 35.5 °F 33.1 °F 83% 30.05 in 10.0 mi SSW 3.5 mph - N/A   Overcast
7:53 PM 36.0 °F - 32.0 °F 86% 30.05 in 10.0 mi Calm Calm - N/A   Clear
8:53 PM 32.0 °F - 30.0 °F 92% 30.06 in 7.0 mi Calm Calm - N/A   Clear
9:53 PM 34.0 °F - 32.0 °F 92% 30.06 in 7.0 mi Calm Calm - N/A   Overcast
10:53 PM 36.0 °F - 34.0 °F 93% 30.06 in 10.0 mi Calm Calm - N/A   Overcast
11:53 PM 37.9 °F - 34.0 °F 86% 30.08 in 10.0 mi Calm Calm - N/A   Overcast